Regional Weather Roundup
Issued by NWS

Home | Current Version | Previous Version | Graphics & Text | Print | Product List | Glossary On
Versions: 1 2 3 4 5 6 7 8 9 10 11 12 13 14 15 16 17 18 19 20 21 22 23 24 25 26 27 28 29 30 31 32 33 34 35 36 37 38 39 40 41 42 43 44 45 46 47 48 49 50
000
ASUS45 KBOI 281910
RWRID
WEATHER ROUNDUP FOR IDAHO
NATIONAL WEATHER SERVICE BOISE ID
100 PM MDT THU AUG 28 2014

NOTE: "FAIR" INDICATES FEW OR NO CLOUDS BELOW 12000 FEET
WITH NO SIGNIFICANT WEATHER AND/OR OBSTRUCTIONS TO VISIBILITY

IDZ012-014-282000-
SOUTHWEST IDAHO


CITY           SKY/WX    TMP DP  RH WIND       PRES   REMARKS
BOISE          SUNNY     85  42  22 VRB5      30.07F
CALDWELL       SUNNY     82  46  28 CALM      30.08F
MOUNTAIN HOME  SUNNY     86  42  21 NE5       30.06F
$$

IDZ016-017-282000-
SOUTHCENTRAL IDAHO


CITY           SKY/WX    TMP DP  RH WIND       PRES   REMARKS
BURLEY         SUNNY     82  46  28 CALM      30.14F
JEROME         SUNNY     81  47  30 SE7       30.14F
TWIN FALLS     SUNNY     85  41  21 S3        30.14F
$$

IDZ019>023-282000-
SOUTHEAST IDAHO


CITY           SKY/WX    TMP DP  RH WIND       PRES   REMARKS
IDAHO FALLS    SUNNY     78  48  34 SW12      30.19F
POCATELLO      SUNNY     82  46  28 W6        30.18F
REXBURG        SUNNY     74  49  41 SW13      30.20F
$$

IDZ006-010-011-018-031-032-282000-
CENTRAL IDAHO MOUNTAINS


CITY           SKY/WX    TMP DP  RH WIND       PRES   REMARKS
MCCALL         SUNNY     76  40  27 S10       30.16F
HAILEY         MOSUNNY   75  50  41 SE17      30.22F
STANLEY          N/A     77  37  23 N10       30.25F
SALMON         SUNNY     72  46  40 NW5       30.08F
CHALLIS        MOSUNNY   75  47  36 N5        30.14F
$$

IDZ002-004-006-007-026-282000-
NORTHERN IDAHO


CITY           SKY/WX    TMP DP  RH WIND       PRES   REMARKS
LEWISTON       SUNNY     84  51  31 N8        29.98F
LOWELL           N/A     80  54  40 CALM      29.98F
COEUR D`ALENE  MOSUNNY   79  48  34 SW16      29.99S
MULLAN PASS    MOSUNNY   62  45  53 SW9G17    30.17F
$$



USA.gov is the U.S. government's official web portal to all federal, state and local government web resources and services.